Погода в Капошваре

Венгрия     46°21′49″N   17°46′57″E
темп.,
°C
ветер,
м/с
пор.,
м/с
влажн.,
%
обл.,
%
осадки,
мм/ч
давл.,
гПа
погр.,
м
24 мая, вт
вт2423:00+16ююв41168100 0.1 1009249
02:00+15юв5136999 0.1 1007328
05:00+14юв4106954 0.0 1008244
08:00+17ююв46645 0.0 1008319
11:00+22ю336143 0.0 1009807
14:00+26юз24516 0.0 10081643
17:00+27зсз244866 0.0 10071682
20:00+20св488295 0.0 1008192
25 мая, ср
ср2523:00+15всв489212 0.4 1010169
02:00+14св2296100 1.0 101136
05:00+12ссв2397100 0.1 101250
08:00+16с238799 0.1 1013239
11:00+22ссз336499 0.0 1015773
14:00+25ссз335498 0.0 10151304
17:00+23с555812 0.0 10151025
20:00+17ссз379146 1.1 1017190
26 мая, чт
чт2623:00+14с3991100 0.8 1020211
02:00+13с228984 0.8 102123
05:00+12с118930 0.0 102112
08:00+16ссз127598 0.0 1023198
11:00+22ссв11522 0.0 1023843
14:00+26юв01455 0.0 10221421
17:00+25ююз11485 0.0 10201407
20:00+20в11693 0.0 102011
27 мая, пт
пт2723:00+18в117630 0.1 102111
02:00+17юв117798 0.1 102011
05:00+16в0180100 0.0 101911
08:00+20ю127087 0.0 1018252
11:00+24ю2256100 0.0 1017871
14:00+27зюз355126 0.0 10151795
17:00+27сз455196 0.0 10131506
20:00+20ссв51085100 0.8 1013318
28 мая, сб
сб2823:00+16ссв51489100 2.3 1015528
02:00+13ссв51488100 2.9 1016653
05:00+13св31083100 0.0 1016788
08:00+11св3887100 0.3 1018580
11:00+11св2692100 1.9 1019509
14:00+10с1488100 3.1 1020332
17:00+10ю3494100 0.8 1020245
20:00+9ююз3596100 2.3 1019280